TimeCDT,TemperatureF,Dew PointF,Humidity,Sea Level PressureIn,VisibilityMPH,Wind Direction,Wind SpeedMPH,Gust SpeedMPH,PrecipitationIn,Events,Conditions,WindDirDegrees,DateUTC
12:15 AM,50.0,44.6,82,30.04,10.0,NNW,5.8,-,N/A,,Clear,340,2013-08-13 05:15:00
12:35 AM,50.0,44.6,82,30.04,10.0,NNW,5.8,-,N/A,,Clear,340,2013-08-13 05:35:00
12:55 AM,48.2,44.6,87,30.03,10.0,NNW,5.8,-,N/A,,Clear,340,2013-08-13 05:55:00
1:15 AM,48.2,44.6,87,30.04,10.0,NNW,4.6,-,N/A,,Clear,340,2013-08-13 06:15:00
1:35 AM,48.2,44.6,87,30.04,10.0,NNW,4.6,-,N/A,,Clear,330,2013-08-13 06:35:00
1:55 AM,48.2,44.6,87,30.04,10.0,NW,4.6,-,N/A,,Clear,320,2013-08-13 06:55:00
2:15 AM,48.2,44.6,87,30.04,10.0,NNW,4.6,-,N/A,,Clear,330,2013-08-13 07:15:00
2:35 AM,48.2,44.6,87,30.04,10.0,NW,4.6,-,N/A,,Clear,320,2013-08-13 07:35:00
2:55 AM,48.2,44.6,87,30.04,10.0,NNW,6.9,-,N/A,,Clear,330,2013-08-13 07:55:00
3:15 AM,46.4,44.6,93,30.05,10.0,NNW,8.1,-,N/A,,Clear,330,2013-08-13 08:15:00
3:35 AM,48.2,44.6,87,30.05,10.0,NNW,6.9,-,N/A,,Clear,340,2013-08-13 08:35:00
3:55 AM,48.2,44.6,87,30.06,10.0,NNW,6.9,-,N/A,,Clear,330,2013-08-13 08:55:00
4:15 AM,46.4,42.8,87,30.06,10.0,NNW,6.9,-,N/A,,Clear,340,2013-08-13 09:15:00
4:35 AM,46.4,42.8,87,30.06,10.0,NNW,8.1,-,N/A,,Clear,340,2013-08-13 09:35:00
4:55 AM,46.4,42.8,87,30.06,10.0,NNW,5.8,-,N/A,,Clear,330,2013-08-13 09:55:00
5:15 AM,46.4,42.8,87,30.06,10.0,NNW,4.6,-,N/A,,Clear,330,2013-08-13 10:15:00
5:35 AM,44.6,42.8,93,30.06,10.0,NNW,5.8,-,N/A,,Clear,340,2013-08-13 10:35:00
5:55 AM,46.4,42.8,87,30.07,10.0,NW,4.6,-,N/A,,Clear,320,2013-08-13 10:55:00
6:15 AM,46.4,42.8,87,30.07,10.0,NNW,5.8,-,N/A,,Clear,330,2013-08-13 11:15:00
6:35 AM,46.4,44.6,93,30.07,10.0,NNW,5.8,-,N/A,,Clear,330,2013-08-13 11:35:00
6:55 AM,48.2,44.6,87,30.07,10.0,NNW,5.8,-,N/A,,Clear,330,2013-08-13 11:55:00
7:15 AM,48.2,44.6,87,30.07,10.0,North,6.9,-,N/A,,Clear,350,2013-08-13 12:15:00
7:35 AM,50.0,46.4,87,30.08,10.0,NNW,8.1,-,N/A,,Clear,340,2013-08-13 12:35:00
7:55 AM,51.8,48.2,88,30.08,10.0,North,9.2,-,N/A,,Clear,350,2013-08-13 12:55:00
8:15 AM,53.6,48.2,82,30.08,10.0,NNW,8.1,-,N/A,,Clear,340,2013-08-13 13:15:00
8:35 AM,55.4,48.2,77,30.08,10.0,NNW,9.2,-,N/A,,Clear,330,2013-08-13 13:35:00
8:55 AM,55.4,48.2,77,30.09,10.0,North,6.9,-,N/A,,Clear,360,2013-08-13 13:55:00
9:15 AM,57.2,48.2,72,30.09,10.0,North,8.1,-,N/A,,Clear,350,2013-08-13 14:15:00
9:35 AM,59.0,48.2,67,30.09,10.0,NNE,6.9,-,N/A,,Clear,20,2013-08-13 14:35:00
9:55 AM,60.8,48.2,63,30.10,10.0,NNE,6.9,-,N/A,,Clear,20,2013-08-13 14:55:00
10:15 AM,62.6,48.2,59,30.09,10.0,North,8.1,-,N/A,,Clear,360,2013-08-13 15:15:00
10:35 AM,62.6,48.2,59,30.10,10.0,North,9.2,-,N/A,,Scattered Clouds,360,2013-08-13 15:35:00
10:55 AM,60.8,48.2,63,30.10,10.0,North,8.1,17.3,N/A,,Mostly Cloudy,350,2013-08-13 15:55:00
11:15 AM,60.8,48.2,63,30.10,10.0,North,11.5,17.3,N/A,,Overcast,10,2013-08-13 16:15:00
11:35 AM,60.8,50.0,68,30.11,10.0,NNE,15.0,20.7,N/A,,Mostly Cloudy,30,2013-08-13 16:35:00
11:55 AM,60.8,51.8,72,30.11,10.0,NNW,8.1,-,0.01,,Mostly Cloudy,340,2013-08-13 16:55:00
12:15 PM,62.6,51.8,68,30.11,10.0,North,11.5,-,N/A,,Mostly Cloudy,350,2013-08-13 17:15:00
12:35 PM,62.6,50.0,63,30.11,10.0,North,9.2,-,N/A,,Mostly Cloudy,10,2013-08-13 17:35:00
12:55 PM,62.6,48.2,59,30.11,10.0,North,10.4,16.1,N/A,,Overcast,360,2013-08-13 17:55:00
1:15 PM,57.2,50.0,77,30.11,10.0,NNE,4.6,-,0.02,,Overcast,20,2013-08-13 18:15:00
1:35 PM,60.8,53.6,77,30.11,10.0,NNW,5.8,-,0.02,,Mostly Cloudy,330,2013-08-13 18:35:00
1:55 PM,62.6,51.8,68,30.11,10.0,NNE,17.3,20.7,0.02,,Overcast,30,2013-08-13 18:55:00
2:15 PM,60.8,48.2,63,30.12,10.0,North,11.5,-,N/A,,Mostly Cloudy,360,2013-08-13 19:15:00
2:35 PM,62.6,48.2,59,30.11,10.0,North,9.2,17.3,N/A,,Overcast,360,2013-08-13 19:35:00
2:55 PM,64.4,48.2,56,30.11,10.0,North,9.2,-,N/A,,Scattered Clouds,350,2013-08-13 19:55:00
3:15 PM,62.6,46.4,55,30.11,10.0,North,11.5,17.3,0.01,,Mostly Cloudy,10,2013-08-13 20:15:00
3:35 PM,62.6,46.4,55,30.11,10.0,North,9.2,-,0.01,,Mostly Cloudy,360,2013-08-13 20:35:00
3:55 PM,64.4,46.4,52,30.10,10.0,North,9.2,16.1,0.01,,Mostly Cloudy,350,2013-08-13 20:55:00
4:15 PM,62.6,46.4,55,30.11,10.0,NE,6.9,-,N/A,,Overcast,40,2013-08-13 21:15:00
4:35 PM,62.6,46.4,55,30.11,10.0,NNE,8.1,-,N/A,,Overcast,20,2013-08-13 21:35:00
4:55 PM,62.6,46.4,55,30.12,10.0,North,5.8,-,N/A,,Overcast,10,2013-08-13 21:55:00
5:15 PM,62.6,46.4,55,30.12,10.0,NE,8.1,-,N/A,,Overcast,40,2013-08-13 22:15:00
5:35 PM,62.6,44.6,52,30.12,10.0,NNE,9.2,-,N/A,,Overcast,30,2013-08-13 22:35:00
5:55 PM,62.6,44.6,52,30.12,10.0,NNE,9.2,16.1,N/A,,Mostly Cloudy,30,2013-08-13 22:55:00
6:15 PM,62.6,44.6,52,30.13,10.0,NNE,5.8,-,N/A,,Partly Cloudy,20,2013-08-13 23:15:00
6:35 PM,60.8,46.4,59,30.13,10.0,North,4.6,-,N/A,,Mostly Cloudy,350,2013-08-13 23:35:00
6:55 PM,62.6,44.6,52,30.13,10.0,NNE,8.1,-,N/A,,Mostly Cloudy,20,2013-08-13 23:55:00
7:15 PM,60.8,46.4,59,30.13,10.0,NNE,8.1,-,N/A,,Partly Cloudy,20,2013-08-14 00:15:00
7:35 PM,59.0,44.6,59,30.13,10.0,NNE,4.6,-,N/A,,Clear,30,2013-08-14 00:35:00
7:55 PM,57.2,44.6,63,30.13,10.0,North,3.5,-,N/A,,Clear,10,2013-08-14 00:55:00
8:15 PM,55.4,44.6,67,30.14,10.0,NNE,5.8,-,N/A,,Clear,30,2013-08-14 01:15:00
8:35 PM,55.4,44.6,67,30.14,10.0,NNE,5.8,-,N/A,,Clear,30,2013-08-14 01:35:00
8:55 PM,53.6,44.6,72,30.15,10.0,North,3.5,-,N/A,,Clear,360,2013-08-14 01:55:00
9:15 PM,53.6,44.6,72,30.15,10.0,North,3.5,-,N/A,,Clear,360,2013-08-14 02:15:00
9:35 PM,51.8,44.6,76,30.15,10.0,North,5.8,-,N/A,,Clear,10,2013-08-14 02:35:00
9:55 PM,51.8,44.6,76,30.15,10.0,Calm,Calm,-,N/A,,Clear,0,2013-08-14 02:55:00
10:15 PM,48.2,44.6,87,30.15,10.0,Calm,Calm,-,N/A,,Clear,0,2013-08-14 03:15:00
10:35 PM,48.2,44.6,87,30.16,10.0,Calm,Calm,-,N/A,,Clear,0,2013-08-14 03:35:00
10:55 PM,48.2,44.6,87,30.16,10.0,North,3.5,-,N/A,,Clear,350,2013-08-14 03:55:00
11:15 PM,50.0,44.6,82,30.16,10.0,North,3.5,-,N/A,,Clear,350,2013-08-14 04:15:00
11:35 PM,48.2,42.8,82,30.16,10.0,North,3.5,-,N/A,,Clear,360,2013-08-14 04:35:00
11:55 PM,46.4,44.6,93,30.16,10.0,Calm,Calm,-,N/A,,Clear,0,2013-08-14 04:55:00